This demonstration page uses our WeatherBlox Daily Observations layout. Learn more.

Left ArrowRight Arrow

34.16533, -84.80231

Hourly Observations for April 24, 2020

Temp ( °F °C ) Dew Point ( °F °C ) Humidity (%) Winds ( mph kmh ) Pressure ( in mb ) Visibility ( mi km ) Precip ( " mm )
12:37 am 00:37 Cloudy 62 16.7 57 13.9 84 84 SSW 6 9 29.70 1006 10 16 0.00 0.00
12:53 am 00:53 Cloudy 62 16.7 58 14.4 86 86 VRB 3 6 29.69 1005 10 16 0.00 0.00
1:40 am 01:40 Cloudy 63 17.2 58 14.4 84 84 SSW 5 7 29.72 1006 10 16 0.00 0.00
1:53 am 01:53 Cloudy 63 17.2 58 14.4 84 84 SSW 6 9 29.70 1006 10 16 0.00 0.00
2:53 am 02:53 Cloudy 63 17.2 58 14.4 84 84 VRB 3 6 29.69 1005 10 16 0.00 0.00
3:53 am 03:53 Cloudy 63 17.2 58 14.4 84 84 Calm 29.69 1006 10 16 0.00 0.00
4:29 am 04:29 Cloudy 63 17.2 58 14.4 84 84 VRB 3 6 29.72 1006 10 16 0.00 0.00
4:46 am 04:46 Cloudy 62 16.7 57 13.9 84 84 SSW 3 6 29.72 1006 10 16 0.00 0.00
4:53 am 04:53 Cloudy 62 16.7 57 13.9 84 84 SSW 3 6 29.70 1006 10 16 0.00 0.00
5:38 am 05:38 Cloudy 61 16.1 57 13.9 87 87 Calm 29.72 1007 10 16 0.00 0.00
5:50 am 05:50 Cloudy 61 16 57 14 88 88 VRB 3 6 29.72 1007 10 16 0.00 0.00
5:53 am 05:53 Cloudy 62 16.7 57 13.9 84 84 Calm 29.70 1006 10 16 0.00 0.00
6:03 am 06:03 Cloudy 61 16.1 57 13.9 87 87 Calm 29.73 1007 10 16 0.00 0.00
6:17 am 06:17 Cloudy 61 16.1 57 13.9 87 87 Calm 29.72 1007 10 16 0.00 0.00
6:27 am 06:27 Cloudy 60 15.6 57 13.9 90 90 Calm 29.73 1007 10 16 0.00 0.00
6:36 am 06:36 Cloudy 60 15.6 57 13.9 90 90 Calm 29.73 1007 10 16 0.00 0.00
6:53 am 06:53 Cloudy 61 16.1 57 13.9 87 87 Calm 29.72 1007 10 16 0.00 0.00
7:14 am 07:14 Cloudy 61 16.1 57 13.9 87 87 Calm 29.75 1008 10 16 0.00 0.00
7:37 am 07:37 Cloudy 61 16.1 57 13.9 87 87 Calm 29.76 1008 10 16 0.00 0.00
7:53 am 07:53 Cloudy 62 16.7 57 13.9 84 84 VRB 3 6 29.74 1007 10 16 0.00 0.00
8:53 am 08:53 Cloudy 62 16.7 57 13.9 84 84 VRB 3 6 29.77 1008 10 16 0.00 0.00
9:31 am 09:31 Cloudy 63 17.2 56 13.3 78 78 Calm 29.78 1008 10 16 0.00 0.00
9:38 am 09:38 Cloudy 64 17.8 57 13.9 78 78 VRB 3 6 29.78 1008 10 16 0.00 0.00
9:53 am 09:53 Mostly Cloudy 65 18.3 57 13.9 76 76 Calm 29.76 1008 10 16 0.00 0.00
10:53 am 10:53 Cloudy 65 18.3 56 13.3 73 73 VRB 5 7 29.78 1008 10 16 0.00 0.00
11:15 am 11:15 Cloudy 65 18.3 56 13.3 73 73 Calm 29.81 1009 10 16 0.00 0.00
11:28 am 11:28 Cloudy 66 18.9 56 13.3 70 70 Calm 29.81 1009 10 16 0.00 0.00
11:53 am 11:53 Cloudy 67 19.4 56 13.3 68 68 VRB 3 6 29.80 1009 10 16 0.00 0.00
12:53 pm 12:53 Cloudy 68 20 55 12.8 63 63 VRB 3 6 29.83 1010 10 16 0.00 0.00
1:53 pm 13:53 Cloudy 68 20 55 12.8 63 63 Calm 29.83 1010 10 16 0.00 0.00
2:53 pm 14:53 Cloudy 70 21.1 54 12.2 57 57 VRB 3 6 29.81 1009 10 16 0.00 0.00
3:53 pm 15:53 Cloudy 72 22.2 54 12.2 53 53 VRB 6 9 29.80 1009 10 16 0.00 0.00
4:53 pm 16:53 Mostly Cloudy 70 21.1 54 12.2 57 57 N 7 11 29.79 1009 10 16 0.00 0.00
5:53 pm 17:53 Cloudy 71 21.7 54 12.2 55 55 N 6 9 29.78 1009 10 16 0.00 0.00
6:53 pm 18:53 Cloudy 70 21.1 53 11.7 55 55 Calm 29.79 1009 10 16 0.00 0.00
7:53 pm 19:53 Cloudy 68 20 54 12.2 61 61 Calm 29.81 1009 10 16 0.00 0.00
8:53 pm 20:53 Clear 60 15.6 56 13.3 86 86 Calm 29.82 1010 10 16 0.00 0.00
9:53 pm 21:53 Clear 56 13.3 54 12.2 93 93 Calm 29.83 1010 10 16 0.00 0.00
10:53 pm 22:53 Clear with Mist and Fog 56 13.3 53 11.7 90 90 Calm 29.84 1011 6 10 0.00 0.00
11:53 pm 23:53 Clear 55 12.8 52 11.1 90 90 Calm 29.85 1011 10 16 0.00 0.00

Powered by AerisWeather